Stations météo

réclame
Mon MeteoGroup
Celle, Allemagne (10343): Température de l'air & dewpoint: 11.02.2019 13:00:00 - 17.02.2019 13:00:00 (CET)Celle, Allemagne (10343): Vitesse du vent & gusts: 11.02.2019 13:00:00 - 17.02.2019 13:00:00 (CET)Celle, Allemagne (10343): Direction du vent: 11.02.2019 13:00:00 - 17.02.2019 13:00:00 (CET)Celle, Allemagne (10343): reduced air pressure: 11.02.2019 13:00:00 - 17.02.2019 13:00:00 (CET)Celle, Allemagne (10343): visibility: 11.02.2019 13:00:00 - 17.02.2019 13:00:00 (CET)
Date & Time tt [°C] td [°C] ff [km/h] ff [knt] fx [km/h] fx [knt] dd ppp [hPa] vv [km]
17.02.2019 13:00:00 13,3 2,2 11 6 - - SE 1022,7 25
17.02.2019 12:00:00 11,3 2,6 11 6 - - SE 1023,6 20
17.02.2019 11:00:00 7,8 1,5 7 4 - - ESE 1024,1 20
17.02.2019 10:00:00 4,2 0,9 4 2 - - E 1024,5 20
17.02.2019 09:00:00 0,4 -0,9 4 2 - - NE 1024,9 20
17.02.2019 08:00:00 -0,6 -1,6 7 4 - - NE 1024,9 20
17.02.2019 07:00:00 -1,4 -2,3 7 4 - - NNE 1024,7 25
17.02.2019 06:00:00 -1,0 -1,9 4 2 - - E 1024,7 25
17.02.2019 05:00:00 -0,5 -1,5 4 2 - - ESE 1024,9 25
17.02.2019 04:00:00 -0,7 -1,7 0 0 - - N 1025,2 25
17.02.2019 03:00:00 -0,4 -1,7 0 0 - - N 1025,5 25
17.02.2019 02:00:00 -0,1 -1,2 0 0 - - N 1025,6 25
17.02.2019 01:00:00 0,0 -1,7 0 0 - - N 1025,5 25
17.02.2019 00:00:00 0,9 -1,3 0 0 - - N 1025,4 25
16.02.2019 23:00:00 1,5 -0,6 0 0 - - N 1025,4 25
16.02.2019 22:00:00 2,1 -0,8 0 0 - - N 1025,2 25
16.02.2019 21:00:00 3,0 -0,9 4 2 - - S 1025,1 30
16.02.2019 20:00:00 4,3 -0,8 0 0 - - N 1025,2 30
16.02.2019 19:00:00 7,6 0,0 7 4 - - WSW 1024,9 30
16.02.2019 18:00:00 10,3 0,2 7 4 - - W 1024,5 30
16.02.2019 17:00:00 14,2 0,1 11 6 - - WSW 1024,2 30
16.02.2019 16:00:00 15,5 -1,6 18 10 - - WSW 1024,3 30
16.02.2019 15:00:00 15,4 -0,3 14 8 - - WSW 1024,7 30
16.02.2019 14:00:00 15,2 0,6 22 12 - - SW 1024,8 30
16.02.2019 13:00:00 14,6 -0,6 22 12 - - WSW 1025,5 30
16.02.2019 12:00:00 13,2 -0,4 14 8 - - SW 1025,9 30
16.02.2019 11:00:00 11,3 -0,9 14 8 - - SW 1025,8 30
16.02.2019 10:00:00 8,4 -0,4 11 6 - - SSW 1025,9 30
16.02.2019 09:00:00 2,1 -1,4 4 2 - - SW 1026,1 30
16.02.2019 08:00:00 -1,4 -2,4 0 0 - - N 1026,0 25
16.02.2019 07:00:00 -1,3 -2,3 0 0 - - N 1025,9 25
16.02.2019 06:00:00 -1,4 -2,4 4 2 - - NNE 1026,0 25
16.02.2019 05:00:00 -1,0 -2,1 4 2 - - NE 1026,4 25
16.02.2019 04:00:00 -0,2 -1,5 4 2 - - ENE 1026,7 25
16.02.2019 03:00:00 0,1 -1,5 4 2 - - E 1027,3 25
16.02.2019 02:00:00 0,9 -1,0 4 2 - - NNE 1027,8 30
16.02.2019 01:00:00 1,5 -0,6 4 2 - - E 1028,1 30
16.02.2019 00:00:00 3,0 -0,5 4 2 - - E 1028,4 30
15.02.2019 23:00:00 2,5 -0,8 4 2 - - SE 1028,9 30
15.02.2019 22:00:00 3,0 0,1 4 2 - - NE 1029,2 30
15.02.2019 21:00:00 3,6 0,1 4 2 - - E 1029,6 30
15.02.2019 20:00:00 4,4 0,2 0 0 - - N 1030,1 30
15.02.2019 19:00:00 6,4 1,4 4 2 - - ESE 1030,4 30
15.02.2019 18:00:00 8,3 1,2 4 2 - - ESE 1030,5 30
15.02.2019 17:00:00 13,1 0,9 7 4 - - SSE 1030,9 30
15.02.2019 16:00:00 14,7 0,7 11 6 - - SSE 1031,5 30
15.02.2019 15:00:00 15,0 0,1 14 8 - - S 1031,9 30
15.02.2019 14:00:00 13,8 1,3 11 6 - - SE 1032,6 30
15.02.2019 13:00:00 11,9 0,0 7 4 - - E 1033,4 30
15.02.2019 12:00:00 9,8 -0,3 7 4 - - ESE 1034,1 30
15.02.2019 11:00:00 7,6 0,4 4 2 - - N 1034,4 30
15.02.2019 10:00:00 3,5 -0,7 7 4 - - NE 1034,6 30
15.02.2019 09:00:00 0,4 -1,2 4 2 - - SE 1034,6 30
15.02.2019 08:00:00 -2,1 -2,9 4 2 - - ENE 1034,6 30
15.02.2019 07:00:00 -2,3 -3,1 0 0 - - N 1034,3 25
15.02.2019 06:00:00 -2,1 -3,2 7 4 - - ENE 1034,5 25
15.02.2019 05:00:00 -1,9 -3,0 4 2 - - ESE 1034,6 27
15.02.2019 04:00:00 -1,7 -2,8 0 0 - - N 1034,8 25
15.02.2019 03:00:00 -1,7 -3,0 0 0 - - N 1034,9 26
15.02.2019 02:00:00 -1,4 -2,7 0 0 - - N 1035,2 27
15.02.2019 01:00:00 -0,9 -2,3 0 0 - - N 1035,2 28
15.02.2019 00:00:00 -0,1 -2,3 0 0 - - N 1035,2 29
14.02.2019 23:00:00 0,2 -1,7 0 0 - - N 1035,3 30
14.02.2019 22:00:00 1,5 -1,4 0 0 - - N 1035,2 30
14.02.2019 21:00:00 2,3 -1,1 0 0 - - N 1035,1 30
14.02.2019 20:00:00 3,0 -1,0 4 2 - - SSE 1035,3 30
14.02.2019 19:00:00 5,1 -1,0 4 2 - - WSW 1035,2 30
14.02.2019 18:00:00 8,7 -1,4 4 2 - - SSW 1035,0 30
14.02.2019 17:00:00 11,3 -3,7 7 4 - - WSW 1034,9 30
14.02.2019 16:00:00 12,1 -4,8 14 8 - - WSW 1035,0 30
14.02.2019 15:00:00 12,4 -2,5 14 8 - - WSW 1035,2 30
14.02.2019 14:00:00 12,0 -2,1 18 10 - - WSW 1035,3 20
14.02.2019 13:00:00 10,9 0,0 18 10 - - SSW 1035,7 15
14.02.2019 12:00:00 9,0 1,6 14 8 - - SW 1036,3 15
14.02.2019 11:00:00 7,4 1,7 14 8 - - SW 1036,4 13
14.02.2019 10:00:00 4,9 1,5 7 4 - - N 1036,7 12
14.02.2019 09:00:00 1,8 0,5 4 2 - - S 1036,5 11
14.02.2019 08:00:00 2,4 1,6 7 4 - - SSW 1036,0 10
14.02.2019 07:00:00 3,0 1,4 4 2 - - ESE 1035,8 8
14.02.2019 06:00:00 3,9 1,5 7 4 - - SSW 1035,6 20
14.02.2019 05:00:00 4,8 2,2 11 6 - - SW 1035,2 18
14.02.2019 04:00:00 5,6 2,4 7 4 - - SW 1035,2 18
14.02.2019 03:00:00 6,3 3,0 7 4 - - SW 1035,1 18
14.02.2019 02:00:00 6,8 3,2 7 4 - - SW 1035,3 18
14.02.2019 01:00:00 6,8 3,4 7 4 - - WSW 1035,3 18
14.02.2019 00:00:00 6,9 3,6 11 6 - - SW 1034,9 15
13.02.2019 23:00:00 7,1 3,6 11 6 - - WSW 1035,1 15
13.02.2019 22:00:00 7,2 4,0 14 8 - - WSW 1035,2 15
13.02.2019 21:00:00 7,3 3,8 18 10 - - WSW 1035,0 15
13.02.2019 20:00:00 7,3 4,2 18 10 - - WSW 1035,0 10
13.02.2019 19:00:00 7,1 4,7 18 10 - - WSW 1034,9 9
13.02.2019 18:00:00 7,1 5,1 21 11 - - WSW 1034,3 5
13.02.2019 17:00:00 7,7 4,7 22 12 - - WSW 1034,0 11
13.02.2019 16:00:00 7,9 4,7 22 12 - - WSW 1034,0 11
13.02.2019 15:00:00 7,6 4,9 11 6 - - WSW 1033,9 10
13.02.2019 14:00:00 7,1 5,0 14 8 - - WSW 1033,9 7
13.02.2019 13:00:00 6,7 5,0 18 10 - - WSW 1033,7 6
13.02.2019 12:00:00 6,0 5,0 18 10 - - WSW 1033,8 4,8
13.02.2019 11:00:00 5,4 4,5 22 12 - - WSW 1033,6 2,5
13.02.2019 10:00:00 5,6 4,4 22 12 - - WSW 1033,5 4,0
13.02.2019 09:00:00 5,6 3,8 22 12 - - WSW 1033,1 4,5
13.02.2019 08:00:00 5,5 3,8 14 8 - - W 1032,7 4,8
13.02.2019 07:00:00 5,3 4,0 18 10 - - WSW 1032,2 4,5
13.02.2019 06:00:00 5,0 4,0 16 9 - - WSW 1032,3 2,8
13.02.2019 05:00:00 5,9 3,2 18 10 - - WSW 1032,1 15
13.02.2019 04:00:00 5,9 2,7 22 12 - - WSW 1031,8 15
13.02.2019 03:00:00 5,8 2,5 25 14 - - WSW 1032,1 15
13.02.2019 02:00:00 5,6 2,3 22 12 - - WSW 1032,8 15
13.02.2019 01:00:00 5,4 2,0 18 10 - - WSW 1032,8 10
13.02.2019 00:00:00 5,3 1,9 22 12 - - WSW 1032,6 20
12.02.2019 23:00:00 5,1 1,8 22 12 - - WSW 1032,3 20
12.02.2019 22:00:00 4,8 2,0 18 10 - - SW 1032,1 25
12.02.2019 21:00:00 4,3 2,2 18 10 - - WSW 1032,3 25
12.02.2019 20:00:00 3,9 1,5 11 6 - - WSW 1032,3 25
12.02.2019 19:00:00 4,9 1,7 11 6 - - SSW 1032,3 30
12.02.2019 18:00:00 5,8 1,1 11 6 - - WSW 1032,2 10
12.02.2019 17:00:00 6,2 1,0 11 6 - - WSW 1031,8 30
12.02.2019 16:00:00 6,6 0,2 11 6 - - W 1031,8 30
12.02.2019 15:00:00 7,1 -0,7 18 10 - - W 1031,4 30
12.02.2019 14:00:00 7,5 -0,5 22 12 47 25 W 1030,8 30
12.02.2019 13:00:00 6,0 -0,2 14 8 - - WNW 1031,1 20
12.02.2019 12:00:00 5,7 0,6 22 12 - - W 1030,8 20
12.02.2019 11:00:00 4,6 1,3 14 8 - - WNW 1030,6 20
12.02.2019 10:00:00 3,6 1,6 14 8 - - W 1030,0 20
12.02.2019 09:00:00 3,2 0,8 14 8 - - W 1029,2 25
12.02.2019 08:00:00 3,0 0,4 14 8 - - W 1028,5 25
12.02.2019 07:00:00 2,9 0,3 14 8 - - W 1027,9 30
12.02.2019 06:00:00 2,8 0,5 14 8 - - W 1027,5 30
12.02.2019 05:00:00 2,4 0,8 7 4 - - W 1027,0 20
12.02.2019 04:00:00 3,7 -0,6 18 10 - - W 1026,8 20
12.02.2019 03:00:00 3,9 -1,7 11 6 - - W 1026,4 20
12.02.2019 02:00:00 3,8 -1,7 14 8 - - W 1026,0 20
12.02.2019 01:00:00 3,8 -1,2 14 8 - - W 1026,0 20
12.02.2019 00:00:00 3,3 -0,2 14 8 - - W 1025,2 20
11.02.2019 23:00:00 3,3 0,3 18 10 - - W 1024,9 20
11.02.2019 22:00:00 3,5 -0,3 14 8 - - W 1023,9 20
11.02.2019 21:00:00 3,2 -0,4 14 8 - - W 1023,4 20
11.02.2019 20:00:00 4,3 -1,3 18 10 - - W 1022,4 20
11.02.2019 19:00:00 4,2 -1,4 18 10 - - WNW 1021,6 25
11.02.2019 18:00:00 4,1 -1,7 14 8 47 25 W 1019,8 25
11.02.2019 17:00:00 5,1 -1,8 25 14 47 25 WNW 1018,0 25
11.02.2019 16:00:00 6,3 -0,4 22 12 - - WNW 1016,3 17
11.02.2019 15:00:00 5,7 2,5 22 12 - - WNW 1014,7 15
11.02.2019 14:00:00 3,3 1,5 31 17 68 37 NW 1013,8 1,8
11.02.2019 13:00:00 6,7 -0,2 25 14 - - W 1011,9 20

tt = Température de l'air
td = dewpoint
ff = Vitesse du vent
fx = gusts
dd = Direction du vent
ppp = reduced air pressure
vv = visibility

stations d'obs. à proximité